Theta_e
312 315 315 314 315 316 315 315 314 308 300 296 295 295 295 294 294 293 292 292 291 290 290 289 289 288 287 287 286 286 285 285 285 285 285 284 284 284 284 284 284 284 283
313 315 312 313 313 314 314 313 310 303 297 295 294 294 294 293 293 293 292 291 291 290 289 289 288 288 287 287 286 285 285 285 285 285 284 284 284 284 284 284 284 283 283
313 314 311 310 311 313 313 312 307 298 295 294 294 294 294 293 293 292 291 291 290 290 289 288 288 287 287 287 286 286 285 285 285 285 285 284 284 284 284 283 283 283 283
312 312 310 310 310 311 312 311 304 297 294 294 293 293 293 292 292 292 291 290 290 291 289 288 288 287 287 287 287 286 286 286 285 285 285 285 284 284 283 283 284 283 283
310 311 310 309 309 310 310 306 299 295 293 293 293 292 291 291 291 291 291 290 292 291 289 289 288 287 287 287 286 286 286 286 286 286 285 285 285 284 283 282 282 283 283
307 308 310 308 309 309 306 302 297 293 293 292 292 292 291 290 290 290 289 289 291 289 289 289 288 287 287 287 286 286 286 286 286 286 285 285 285 283 282 281 281 281 280
305 306 308 309 309 308 304 299 295 293 292 292 291 290 290 290 290 289 291 290 290 288 288 288 288 288 287 287 286 286 286 286 286 285 285 285 284 282 281 280 279 280 278
303 304 306 307 308 306 303 299 295 292 292 292 291 290 289 289 291 291 289 290 290 287 289 288 288 287 287 286 286 286 286 285 285 284 284 283 282 281 280 279 278 278 278
303 302 303 304 305 304 302 298 294 292 291 291 290 289 289 292 289 293 288 290 289 288 288 287 287 287 287 286 286 286 286 286 285 284 283 282 282 279 279 278 277 277 277
301 300 300 301 302 301 299 296 294 292 291 291 290 289 288 290 290 293 287 289 291 289 287 287 287 287 286 286 285 285 285 285 284 284 283 282 281 280 279 278 276 276 275
299 298 298 298 298 297 295 294 293 292 291 290 289 288 296 289 291 293 288 289 291 289 286 286 287 286 286 285 285 285 285 284 284 283 283 282 281 279 278 277 276 276 275
296 295 295 295 295 295 294 293 292 291 291 290 288 293 293 289 293 294 293 291 289 286 286 286 286 286 285 285 284 284 283 282 281 281 280 280 279 279 278 277 276 275 274
295 294 294 293 293 292 292 291 291 291 291 290 291 294 294 295 293 292 293 290 286 286 286 286 286 285 285 285 284 283 282 281 280 280 279 279 278 277 276 276 275 275 274
298 298 300 299 297 295 294 293 291 291 291 293 294 294 294 293 293 292 288 287 286 286 286 285 285 285 284 283 283 281 279 279 278 278 277 277 276 276 276 275 274 274 273
300 299 298 297 297 297 296 296 295 295 294 293 292 292 291 290 289 288 287 287 286 286 285 285 285 284 283 281 280 280 279 279 278 277 276 276 276 275 274 274 272 272 272
296 295 295 294 293 293 292 292 291 291 290 290 289 289 289 289 289 288 288 287 286 285 284 284 283 282 282 281 281 280 279 278 277 275 274 273 272 272 272 272 271 271 271
291 291 291 291 292 292 292 292 291 291 290 290 290 289 289 289 288 287 286 285 285 284 283 283 282 281 280 279 279 278 277 275 273 272 271 270 269 269 269 269 269 269 269
290 290 290 290 289 289 289 289 289 289 289 288 287 287 287 286 285 284 284 284 283 281 281 280 280 279 278 277 275 274 273 272 271 270 269 268 267 267 267 267 268 268 267
290 289 289 289 289 289 289 288 288 287 287 286 285 285 284 284 284 284 282 282 282 281 279 278 275 274 274 274 273 273 272 271 270 269 268 267 266 266 266 266 266 266 266
289 289 288 288 288 288 288 288 287 286 285 285 284 283 283 283 283 282 281 280 278 276 275 274 274 274 273 273 272 271 270 269 268 267 267 266 266 266 265 265 266 265 266
288 288 288 287 287 287 286 286 285 284 284 283 282 281 281 281 280 278 276 274 274 274 274 274 273 273 272 271 271 269 269 268 268 267 267 266 266 266 265 265 265 265 265
286 286 286 285 285 284 284 283 283 282 282 281 281 280 280 277 275 274 274 274 274 273 273 272 272 271 271 270 269 269 268 268 267 267 267 266 266 266 265 265 265 265 265
284 284 283 283 282 282 281 281 281 280 280 279 277 276 275 274 274 274 273 273 273 272 272 271 270 270 269 269 269 269 268 268 267 267 266 266 266 266 265 265 265 265 265
282 282 281 281 280 280 279 279 278 277 275 274 274 273 273 273 273 272 272 272 271 270 270 269 269 269 269 269 268 268 268 267 267 267 266 266 266 266 265 265 265 265 265
280 279 279 278 278 277 276 275 274 273 273 273 273 273 272 272 271 271 270 270 269 269 268 268 268 268 268 268 267 267 267 267 267 266 266 266 266 266 265 265 265 264 264
277 277 276 275 274 274 273 273 273 273 273 272 271 271 270 270 270 269 269 268 269 269 269 269 268 268 268 268 268 267 267 266 266 265 265 266 266 265 265 265 264 264 264
Wind_Speed
37 38 38 39 39 38 38 38 38 41 42 41 38 34 30 26 23 19 15 12 10 9 7 7 7 6 7 7 8 9 10 12 15 17 19 20 21 23 26 28 30 32 34
37 40 37 38 39 38 38 40 41 43 43 40 37 33 30 26 22 18 15 12 10 9 8 8 8 8 8 9 9 10 11 14 17 20 22 23 24 26 28 31 33 34 37
38 41 38 39 40 40 40 41 43 45 44 41 37 33 30 27 23 19 15 13 11 9 8 9 9 9 10 10 11 12 13 16 18 22 25 26 28 29 31 33 35 37 39
41 43 42 43 42 42 41 43 44 46 44 41 38 34 31 28 24 20 18 16 13 9 13 12 12 12 12 13 14 14 16 18 20 23 26 28 30 31 34 36 38 39 42
43 45 46 43 43 43 43 44 47 48 45 42 39 36 32 28 25 22 19 17 12 17 16 15 15 15 16 17 18 18 19 21 23 26 28 30 32 33 34 36 39 41 44
44 45 45 43 44 44 43 46 48 48 46 43 40 37 34 31 27 23 20 19 17 21 20 19 18 18 19 21 22 22 23 24 26 29 30 32 34 34 34 36 37 40 44
43 45 46 47 46 45 44 46 48 48 45 43 41 38 34 30 24 24 24 23 20 25 23 23 22 22 22 25 25 27 28 28 30 32 33 34 36 35 35 35 34 37 41
41 43 46 47 47 46 45 46 48 49 46 44 41 38 34 28 26 28 28 32 23 28 30 27 26 26 26 27 29 30 31 32 32 32 34 35 35 34 31 29 34 37 43
39 42 45 46 46 45 46 47 48 47 44 43 40 37 34 25 31 31 33 35 27 31 35 32 30 30 28 29 32 34 35 36 35 34 35 36 35 27 21 31 34 34 44
36 38 39 40 42 43 43 43 44 43 41 39 38 35 30 30 34 34 36 35 33 33 36 35 34 33 31 31 33 35 38 40 38 38 36 34 33 32 31 30 30 34 36
26 28 31 35 38 38 38 40 40 38 36 35 34 30 33 33 36 34 38 35 34 34 40 38 37 34 33 34 35 38 40 39 40 38 39 39 36 35 33 30 31 34 34
17 20 23 28 33 34 34 34 34 32 31 32 33 34 34 38 33 37 36 31 35 38 41 40 38 36 36 36 36 37 37 35 35 36 37 38 37 36 36 35 36 34 34
10 11 14 19 24 27 29 28 27 28 31 36 38 39 35 34 36 36 33 34 35 40 40 39 39 38 39 39 36 32 28 29 32 34 36 38 38 37 37 38 38 36 34
10 10 11 15 20 25 29 30 30 33 36 37 36 34 32 32 33 32 32 31 32 36 37 39 38 38 37 36 35 32 30 30 31 33 35 37 37 37 37 38 38 38 36
10 10 10 10 12 14 16 18 21 22 24 27 28 27 30 33 29 26 26 28 29 30 30 32 33 33 33 32 31 31 32 31 31 30 32 34 37 36 36 36 36 34 31
11 11 10 10 11 12 13 15 17 18 20 23 24 26 27 27 26 26 26 26 26 25 26 27 28 28 28 29 29 29 29 32 35 36 36 36 37 35 35 33 29 28 31
9 8 7 7 8 8 10 12 14 16 19 21 22 23 23 23 23 23 22 24 25 22 22 23 22 24 25 27 30 34 36 36 35 34 34 33 32 30 27 27 26 27 29
5 5 5 6 6 7 9 11 13 15 16 16 17 19 19 19 18 19 20 20 17 18 19 22 24 27 30 32 33 33 34 33 32 31 29 28 26 25 25 25 24 25 25
3 4 5 6 7 9 11 13 14 15 17 18 19 19 19 18 19 18 16 18 19 20 22 23 24 25 26 28 29 29 29 28 26 25 23 22 22 23 24 24 24 23 22
6 7 7 8 9 11 12 13 15 16 17 18 19 19 19 19 19 18 19 20 20 20 21 21 22 23 24 24 24 24 23 22 21 21 21 21 20 21 21 21 20 20 18
6 7 8 8 9 10 12 12 13 14 15 15 16 17 19 18 19 19 19 19 19 19 21 21 20 20 20 21 21 21 20 19 19 19 19 19 19 19 18 19 18 18 16
7 7 7 8 8 9 10 11 12 13 14 15 16 18 21 17 18 18 18 20 20 20 21 20 18 17 17 17 18 19 19 18 17 18 18 18 18 18 18 18 17 16 15
7 7 7 7 8 9 10 11 12 14 15 16 16 17 18 18 18 19 20 20 20 19 19 18 16 15 16 17 18 19 19 18 17 18 18 18 18 18 17 17 16 15 15
6 7 7 8 10 11 12 13 14 14 15 15 16 17 19 20 21 21 21 20 19 17 17 18 18 18 17 18 19 20 20 19 19 18 19 19 17 17 16 16 16 16 16
8 9 10 11 11 12 12 13 14 15 16 18 19 20 21 22 21 20 19 19 18 18 18 19 20 20 19 19 20 19 20 20 19 19 19 20 18 17 16 16 16 17 17
10 11 11 12 13 13 14 16 18 19 20 21 21 21 21 21 20 19 20 20 20 19 19 19 20 21 20 20 19 19 19 20 19 19 20 21 19 18 17 17 17 17 17
Wind_Direction
221 217 216 221 221 222 219 218 218 210 204 203 202 201 200 201 200 201 197 198 201 210 212 215 221 229 243 256 266 272 281 288 296 305 310 315 319 322 323 323 325 327 328
222 216 220 223 223 222 221 217 216 209 205 205 204 203 203 204 205 204 204 205 211 218 219 222 228 236 247 257 265 273 284 292 301 308 312 314 316 320 319 320 321 323 325
221 218 222 223 225 225 223 220 214 209 207 205 206 206 206 207 206 204 204 212 216 222 236 237 236 242 250 261 270 279 287 294 302 308 312 315 315 316 317 317 318 321 323
225 221 223 225 226 227 227 221 213 210 209 209 208 209 209 209 208 208 209 213 217 256 240 240 247 248 254 263 270 278 286 293 300 306 309 312 311 316 314 316 317 320 319
228 227 224 225 228 229 227 217 211 211 210 211 210 209 210 210 212 211 215 216 242 247 241 247 250 253 260 266 271 278 284 291 296 301 304 306 309 312 313 315 315 315 317
231 231 226 228 229 228 225 216 212 211 212 211 212 213 212 212 212 216 219 225 246 240 246 251 253 258 264 269 273 277 281 286 292 295 298 300 305 305 309 310 311 312 320
232 232 230 228 229 228 223 218 216 215 215 215 214 215 215 215 215 221 237 237 242 244 252 253 257 263 266 271 276 279 283 288 290 292 294 297 299 302 304 304 304 310 313
234 232 232 230 228 226 223 220 218 218 217 217 217 217 218 214 229 232 231 245 240 247 256 254 260 264 267 271 275 277 280 282 285 285 288 291 293 294 300 298 300 308 307
235 232 230 229 228 227 225 221 219 219 219 220 221 221 219 228 224 247 235 250 239 250 258 257 261 266 269 272 275 277 280 282 283 285 286 288 291 294 283 276 293 302 311
235 233 232 229 229 229 226 222 221 223 224 223 224 223 224 228 238 246 240 255 247 248 258 257 261 266 270 273 275 277 279 283 287 286 285 285 286 286 287 290 293 302 310
239 237 233 228 226 227 227 225 224 224 225 226 227 225 246 231 246 257 242 253 256 255 260 262 264 268 273 276 278 279 282 286 286 287 290 293 294 296 299 294 293 304 307
231 232 230 227 223 224 225 227 227 227 232 231 223 245 242 241 254 255 254 257 262 260 262 265 269 273 274 276 278 279 280 282 283 286 288 289 293 295 299 295 297 300 303
196 209 218 222 225 227 228 228 229 229 230 231 238 248 247 243 251 264 263 259 256 259 265 270 273 275 277 279 279 281 280 277 276 277 280 286 291 295 295 295 296 296 299
161 179 200 210 216 221 224 226 225 225 230 239 241 242 249 259 266 263 261 258 255 256 260 266 273 276 278 281 284 287 285 285 282 283 285 286 288 290 290 290 292 292 294
165 172 179 185 194 205 214 222 227 233 238 245 252 257 260 263 263 260 255 255 257 259 260 263 267 271 273 274 275 277 279 282 284 287 287 288 290 291 292 292 289 287 296
151 160 170 180 189 199 207 217 224 230 236 243 248 250 251 254 256 259 260 263 263 263 265 268 267 268 272 277 280 284 286 290 294 295 294 294 292 292 290 288 285 290 297
135 147 162 176 189 205 219 230 237 239 243 248 249 251 255 256 260 264 269 268 274 277 270 275 275 278 279 281 285 289 292 296 298 300 300 299 297 294 288 286 288 291 296
145 162 179 195 209 224 234 240 242 245 246 247 252 255 258 260 259 261 266 275 267 265 266 269 272 275 279 284 289 293 296 298 301 301 301 302 299 293 288 288 289 295 300
202 221 235 245 251 255 255 253 252 251 251 251 254 259 260 264 268 272 269 268 271 272 273 273 276 280 285 289 292 295 298 300 302 305 310 312 306 293 287 290 293 297 299
239 246 250 253 255 257 257 256 254 252 251 253 255 256 260 265 271 273 272 269 269 272 275 279 284 288 291 293 296 298 302 306 307 309 311 310 308 299 295 295 295 297 297
249 254 257 258 258 258 257 256 255 254 253 252 252 253 254 258 264 268 272 273 276 280 283 286 288 290 293 296 300 305 309 309 308 308 306 303 304 303 299 297 297 297 294
262 260 260 260 261 259 257 254 251 250 249 251 254 259 269 269 268 269 271 275 278 280 282 286 290 293 295 299 303 304 304 304 303 300 302 302 299 299 299 298 296 293 288
278 279 278 275 272 269 266 263 262 262 262 263 263 264 269 271 272 275 276 277 279 281 284 288 292 295 299 300 300 300 301 302 298 296 297 296 294 294 294 294 292 287 286
275 273 270 268 266 265 265 266 266 265 265 265 264 266 269 273 276 277 277 279 281 283 286 290 294 297 296 294 295 297 298 299 298 297 294 292 290 287 288 289 287 285 284
286 285 283 280 277 275 274 273 272 270 270 271 272 273 273 273 274 275 276 278 281 284 286 289 291 292 293 292 291 291 292 294 294 292 290 287 286 284 284 283 284 281 279
297 292 288 283 279 276 273 271 272 273 274 274 274 275 275 276 275 275 275 277 279 281 282 283 284 286 288 289 291 292 292 291 289 287 285 283 282 282 280 281 280 278 274